FW9998 Weather Reports


time (UTC)temp
F
wind
direction
speed
knots
gust
knots
rain 1hr
in
rain 24hr
in
rain mn
in
humidity
%
barometer
mb
20260507075815 53 97 1.7 1.7 0.00 0.01 0.01 90 1007.4
20260507075312 53 307 1.7 2.6 0.00 0.01 0.01 90 1007.1
20260507074809 54 124 0.9 1.7 0.00 0.01 0.01 90 1006.7
20260507074306 54 124 0.9 0.9 0.05 0.01 0.01 89 1007.1
20260507073803 55 154 0.0 0.9 0.05 0.01 0.01 88 1007.1
20260507073300 55 188 1.7 2.6 0.00 0.00 0.00 88 1007.1
20260507072757 55 215 1.7 2.6 0.00 0.00 0.00 88 1007.1
20260507072254 55 122 0.9 0.9 0.00 0.00 0.00 88 1006.1
20260507071752 55 326 0.9 1.7 0.00 0.00 0.00 88 1006.1
20260507071248 55 111 0.9 0.9 0.00 0.00 0.00 88 1006.4
20260507070745 55 73 0.9 1.7 0.00 0.00 0.00 88 1006.7
20260507070242 56 322 3.5 7.0 0.00 0.00 0.00 88 1006.7
20260507065738 56 336 1.7 1.7 0.00 0.00 0.00 87 1006.1
20260507065235 56 358 0.9 0.9 0.00 0.00 0.00 87 1006.1
20260507064733 56 103 0.9 0.9 0.00 0.00 0.00 87 1006.7
20260507064232 56 114 0.0 0.9 0.00 0.00 0.00 86 1006.4
20260507063728 56 12 0.0 0.9 0.00 0.00 0.00 86 1006.7
20260507063225 56 285 2.6 2.6 0.00 0.00 0.00 87 1006.4
20260507062722 56 72 1.7 1.7 0.00 0.00 0.00 86 1006.7
20260507062220 56 157 1.7 1.7 0.00 0.00 0.00 86 1006.7
20260507061717 57 61 1.7 2.6 0.00 0.00 0.00 86 1006.4
20260507061215 57 127 0.0 0.9 0.00 0.00 0.00 87 1006.4
20260507060713 57 16 0.9 0.9 0.00 0.00 0.00 87 1006.1
20260507060209 57 346 1.7 2.6 0.00 0.00 0.00 87 1006.7
20260507055705 57 37 1.7 3.5 0.00 0.00 0.00 87 1006.4
20260507055201 57 345 2.6 3.5 0.00 0.00 0.00 88 1006.7
20260507054657 57 148 1.7 2.6 0.00 0.00 0.00 89 1006.4
20260507054154 58 132 0.0 0.9 0.00 0.00 0.00 90 1006.7
20260507053652 58 107 0.0 0.0 0.00 0.00 0.00 91 1006.7
20260507053150 58 146 0.0 0.9 0.00 0.00 0.00 91 1006.7
20260507052648 59 126 0.0 0.0 0.00 0.00 0.00 90 1006.7
20260507052144 59 299 0.0 1.7 0.00 0.00 0.00 90 1006.7
20260507051642 59 176 0.0 0.0 0.00 0.00 0.00 90 1006.4
20260507051138 59 190 0.0 0.0 0.00 0.00 0.00 90 1006.4
20260507050635 59 11 0.0 0.0 0.00 0.00 0.00 90 1006.4
20260507050132 59 272 1.7 2.6 0.00 0.00 0.00 90 1006.4
20260507045629 59 117 0.0 0.9 0.00 0.00 0.00 91 1006.4
20260507045126 59 140 0.0 0.0 0.00 0.00 0.00 92 1006.4
20260507044622 59 99 2.6 3.5 0.00 0.00 0.00 93 1006.7
20260507044119 59 80 0.0 0.9 0.00 0.00 0.00 94 1006.4
20260507043615 59 172 1.7 2.6 0.00 0.00 0.00 94 1006.1
20260507043113 60 163 0.0 0.0 0.00 0.00 0.00 95 1006.4
20260507042609 60 144 0.0 0.0 0.00 0.00 0.00 95 1006.4
20260507042104 60 144 0.0 0.0 0.00 0.00 0.00 95 1006.4
20260507041601 60 266 3.5 5.2 0.00 0.00 0.00 96 1006.4
20260507041058 60 127 0.0 0.0 0.00 0.00 0.00 96 1006.4
20260507040555 60 229 0.0 0.0 0.00 0.00 0.00 96 1006.7
20260507040051 60 175 0.9 2.6 0.00 0.07 0.07 96 1006.7
20260507035547 60 278 4.3 6.1 0.00 0.07 0.07 95 1006.7
20260507035043 60 274 0.9 1.7 0.00 0.07 0.07 95 1006.7
20260507034540 60 265 1.7 1.7 0.00 0.07 0.07 95 1006.4
20260507034038 60 159 0.0 0.0 0.00 0.07 0.07 95 1006.4
20260507033536 60 140 0.0 0.0 0.00 0.07 0.07 94 1006.1
20260507033033 60 146 0.0 0.0 0.00 0.07 0.07 94 1006.4
20260507032530 60 170 0.0 0.0 0.00 0.07 0.07 94 1006.4
20260507032026 60 148 0.0 0.0 0.00 0.07 0.07 94 1006.4
20260507031522 60 199 1.7 1.7 0.00 0.07 0.07 94 1006.1
20260507031020 60 220 3.5 6.1 0.00 0.07 0.07 94 1006.1
20260507030516 60 189 1.7 2.6 0.00 0.07 0.07 94 1006.1
20260507030014 60 207 0.9 1.7 0.00 0.07 0.07 94 1006.1
20260507025511 60 152 2.6 3.5 0.00 0.07 0.07 94 1005.7
20260507025009 60 219 1.7 2.6 0.00 0.07 0.07 94 1005.7
20260507024506 60 208 1.7 1.7 0.00 0.07 0.07 94 1006.1
20260507024002 60 211 1.7 2.6 0.00 0.07 0.07 94 1006.1
20260507023458 60 216 1.7 2.6 0.00 0.07 0.07 94 1006.1
20260507022956 59 200 1.7 1.7 0.00 0.07 0.07 94 1006.1
20260507022453 59 172 1.7 1.7 0.00 0.07 0.07 94 1006.4
20260507021948 59 198 2.6 2.6 0.00 0.07 0.07 94 1006.1
20260507021444 59 174 4.3 5.2 0.00 0.07 0.07 94 1006.1
20260507020941 59 150 2.6 2.6 0.00 0.07 0.07 94 1006.1
20260507020438 59 133 1.7 2.6 0.00 0.07 0.07 94 1006.1
20260507015935 59 142 2.6 2.6 0.00 0.07 0.07 94 1005.7
20260507015434 59 198 3.5 3.5 0.00 0.07 0.07 94 1006.1
20260507014930 59 217 6.1 7.0 0.00 0.07 0.07 95 1006.1
20260507014427 59 206 3.5 6.1 0.00 0.07 0.07 95 1006.1
20260507013923 59 158 0.9 1.7 0.00 0.07 0.07 95 1006.4
20260507013420 59 196 2.6 3.5 0.00 0.07 0.07 95 1006.1
20260507012918 59 176 4.3 5.2 0.00 0.07 0.07 95 1006.1
20260507012414 59 94 2.6 3.5 0.00 0.07 0.07 95 1006.4
20260507011911 59 143 4.3 6.1 0.00 0.07 0.07 95 1006.4
20260507011408 59 178 3.5 5.2 0.00 0.07 0.07 95 1006.4
20260507010908 59 238 2.6 5.2 0.00 0.07 0.07 95 1006.4
20260507010403 58 190 5.2 6.1 0.00 0.07 0.07 95 1006.7
20260507005901 58 212 2.6 3.5 0.00 0.07 0.07 95 1006.7
20260507005357 58 139 3.5 5.2 0.00 0.07 0.07 95 1006.7
20260507004854 58 211 4.3 5.2 0.00 0.07 0.07 95 1006.7
20260507004351 58 175 0.9 1.7 0.00 0.07 0.07 95 1006.4
20260507003850 58 161 5.2 7.8 0.00 0.07 0.07 95 1006.4
20260507003344 58 147 1.7 2.6 0.00 0.07 0.07 96 1006.4
20260507002839 58 159 2.6 2.6 0.00 0.07 0.07 96 1006.7
20260507002335 58 180 3.5 3.5 0.00 0.07 0.07 96 1006.7
20260507001833 58 178 6.1 7.8 0.00 0.07 0.07 96 1006.4
20260507001329 58 180 2.6 3.5 0.00 0.07 0.07 96 1006.4
20260507000826 58 219 1.7 2.6 0.00 0.07 0.07 96 1006.1
20260507000321 58 124 4.3 7.0 0.00 0.07 0.07 96 1006.1
20260506235818 58 223 3.5 6.1 0.07 0.07 0.07 96 1006.1
20260506235314 59 224 2.6 5.2 0.07 0.07 0.07 95 1006.1
20260506234811 59 211 2.6 2.6 0.00 0.06 0.06 95 1006.4
20260506234309 59 164 6.1 7.8 0.00 0.06 0.06 95 1006.4
20260506233806 59 167 3.5 5.2 0.05 0.06 0.06 95 1006.1
20260506233302 59 191 4.3 8.7 0.05 0.06 0.06 95 1006.1
20260506232759 59 199 2.6 2.6 0.07 0.05 0.05 95 1006.1
20260506232254 59 195 2.6 2.6 0.07 0.05 0.05 95 1006.1
20260506231751 59 172 7.0 7.8 0.00 0.04 0.04 94 1006.1
20260506231250 60 190 7.0 8.7 0.00 0.04 0.04 94 1006.1
20260506230746 60 154 1.7 1.7 0.00 0.04 0.04 93 1006.1
20260506230243 60 227 4.3 5.2 0.00 0.04 0.04 93 1006.1
20260506225739 60 149 2.6 3.5 0.00 0.04 0.04 93 1006.1
20260506225237 60 217 4.3 5.2 0.00 0.04 0.04 93 1006.4
20260506224733 60 167 4.3 6.1 0.00 0.04 0.04 94 1006.1
20260506224230 60 150 3.5 5.2 0.00 0.04 0.04 94 1006.4
20260506223726 60 197 3.5 5.2 0.00 0.04 0.04 94 1006.1
20260506223222 60 233 4.3 7.0 0.00 0.04 0.04 94 1006.4
20260506222719 60 165 1.7 2.6 0.00 0.04 0.04 94 1006.4
20260506222214 60 166 3.5 5.2 0.00 0.04 0.04 94 1006.7
20260506221713 60 171 5.2 7.0 0.00 0.04 0.04 95 1006.7
20260506221211 60 199 3.5 3.5 0.00 0.04 0.04 94 1006.7
20260506220708 60 198 4.3 5.2 0.00 0.04 0.04 94 1006.7
20260506220202 61 197 4.3 7.0 0.00 0.04 0.04 94 1006.7
20260506215659 61 177 1.7 1.7 0.05 0.04 0.04 93 1006.7
20260506215154 61 189 3.5 5.2 0.00 0.03 0.03 93 1006.7
20260506214652 61 209 2.6 2.6 0.00 0.03 0.03 92 1006.7
20260506214149 62 149 4.3 7.0 0.07 0.03 0.03 91 1006.7
20260506213647 62 231 3.5 5.2 0.07 0.03 0.03 89 1007.1
20260506213144 62 189 2.6 3.5 0.00 0.02 0.02 88 1007.1
20260506212642 62 148 1.7 3.5 0.00 0.02 0.02 88 1006.7
20260506212136 62 148 5.2 7.8 0.00 0.02 0.02 87 1007.1
20260506211632 62 159 1.7 1.7 0.00 0.02 0.02 87 1006.7
20260506211129 62 200 5.2 7.0 0.00 0.02 0.02 87 1007.1
20260506210626 62 169 3.5 3.5 0.00 0.02 0.02 86 1007.1
20260506210122 62 222 6.1 8.7 0.00 0.02 0.02 87 1007.1
20260506205620 62 160 4.3 7.0 0.00 0.02 0.02 87 1007.1
20260506205114 62 223 6.1 8.7 0.00 0.02 0.02 86 1007.1
20260506204613 62 188 7.8 8.7 0.00 0.02 0.02 86 1007.4
20260506204109 62 218 3.5 5.2 0.00 0.02 0.02 87 1007.4
20260506203608 63 182 3.5 3.5 0.00 0.02 0.02 85 1007.4
20260506203104 63 165 6.1 7.8 0.00 0.02 0.02 83 1007.1
20260506202602 63 176 7.8 13.0 0.00 0.02 0.02 83 1007.1
20260506202058 63 241 1.7 3.5 0.00 0.02 0.02 82 1007.4
20260506201555 63 212 7.0 9.6 0.00 0.02 0.02 82 1007.1
20260506201052 63 197 7.0 11.3 0.00 0.02 0.02 83 1007.1
20260506200548 63 148 7.0 11.3 0.00 0.02 0.02 83 1007.1
20260506200045 63 188 4.3 6.1 0.05 0.02 0.02 82 1007.1
20260506195541 64 189 5.2 7.0 0.00 0.01 0.01 82 1006.7
20260506195038 64 173 5.2 7.0 0.00 0.01 0.01 82 1007.1
20260506194536 64 190 5.2 7.0 0.00 0.01 0.01 81 1007.1
20260506194032 65 232 5.2 7.0 0.07 0.01 0.01 80 1007.4
20260506193529 65 189 3.5 3.5 0.07 0.01 0.01 79 1007.4
20260506193026 65 92 3.5 6.1 0.00 0.00 0.00 77 1007.4
20260506192523 66 150 1.7 1.7 0.00 0.00 0.00 76 1007.4
20260506192019 66 285 4.3 7.0 0.00 0.00 0.00 75 1007.4
20260506191516 66 242 8.7 11.3 0.00 0.00 0.00 74 1007.1
20260506191012 67 231 1.7 2.6 0.00 0.00 0.00 72 1007.1
20260506190509 68 182 6.1 7.8 0.00 0.00 0.00 70 1007.1
20260506190006 69 205 7.0 9.6 0.00 0.00 0.00 67 1007.1
20260506185504 69 190 2.6 5.2 0.00 0.00 0.00 67 1007.4
20260506185000 69 189 5.2 7.0 0.00 0.00 0.00 65 1007.4
20260506184457 69 215 3.5 3.5 0.00 0.00 0.00 65 1007.4
20260506183954 69 197 3.5 3.5 0.00 0.00 0.00 64 1007.4
20260506183450 70 216 2.6 2.6 0.00 0.00 0.00 63 1007.4
20260506182947 70 130 7.0 8.7 0.00 0.00 0.00 62 1007.4
20260506182444 71 221 6.1 7.8 0.00 0.00 0.00 61 1007.4
20260506181941 71 156 7.0 8.7 0.00 0.00 0.00 61 1007.4
20260506181439 71 182 11.3 14.8 0.00 0.00 0.00 61 1007.4
20260506180936 71 176 7.0 8.7 0.00 0.00 0.00 60 1007.4
20260506180432 71 143 5.2 7.8 0.00 0.00 0.00 60 1007.8
20260506175929 72 199 7.8 9.6 0.00 0.00 0.00 60 1007.4
20260506175426 72 242 4.3 11.3 0.00 0.00 0.00 60 1007.8
20260506174922 72 210 10.4 12.2 0.00 0.00 0.00 60 1007.8
20260506174420 72 194 5.2 7.0 0.00 0.00 0.00 60 1007.8
20260506173917 72 209 5.2 7.0 0.00 0.00 0.00 60 1007.8
20260506173414 72 221 4.3 6.1 0.00 0.00 0.00 60 1007.8
20260506172911 72 220 7.0 13.0 0.00 0.00 0.00 61 1007.8
20260506172408 71 154 3.5 6.1 0.00 0.00 0.00 61 1008.1
20260506171905 71 246 5.2 6.1 0.00 0.00 0.00 61 1008.1
20260506171402 71 188 6.1 7.8 0.00 0.00 0.00 61 1008.1
20260506170900 71 212 5.2 7.8 0.00 0.00 0.00 62 1007.8
20260506170356 71 197 4.3 6.1 0.00 0.00 0.00 62 1007.8
20260506165855 71 186 6.1 7.8 0.00 0.00 0.00 62 1008.1
20260506165353 71 192 4.3 6.1 0.00 0.00 0.00 63 1008.1
20260506164849 71 253 9.6 11.3 0.00 0.00 0.00 61 1008.1
20260506164345 71 228 7.0 8.7 0.00 0.00 0.00 62 1008.1
20260506163844 71 229 7.0 8.7 0.00 0.00 0.00 62 1008.1
20260506163337 72 245 4.3 7.8 0.00 0.00 0.00 61 1008.1
20260506162833 72 210 2.6 3.5 0.00 0.00 0.00 61 1008.4
20260506162331 72 207 1.7 2.6 0.00 0.00 0.00 61 1008.4
20260506161823 72 169 6.1 8.7 0.00 0.00 0.00 61 1008.4
20260506161320 71 210 3.5 5.2 0.00 0.00 0.00 61 1008.4
20260506160818 71 199 5.2 7.0 0.00 0.00 0.00 62 1008.8
20260506160314 71 183 6.1 9.6 0.00 0.00 0.00 61 1008.8
20260506155813 72 106 2.6 5.2 0.00 0.00 0.00 61 1008.8
20260506155309 72 221 5.2 7.0 0.00 0.00 0.00 61 1009.1
20260506153421 72 223 4.3 6.1 0.00 0.00 0.00 60 1009.1
20260506152919 72 206 2.6 3.5 0.00 0.00 0.00 60 1009.4
20260506152415 72 216 7.8 9.6 0.00 0.00 0.00 59 1009.4
20260506151914 72 224 5.2 7.8 0.00 0.00 0.00 59 1009.4
20260506151411 72 116 5.2 7.0 0.00 0.00 0.00 59 1009.4
20260506150909 72 184 1.7 2.6 0.00 0.00 0.00 60 1009.4
20260506150404 73 173 3.5 3.5 0.00 0.00 0.00 59 1009.4
20260506145901 72 169 4.3 6.1 0.00 0.00 0.00 60 1009.4
20260506145358 71 123 7.8 9.6 0.00 0.00 0.00 62 1009.4
20260506144855 71 204 5.2 7.0 0.00 0.00 0.00 63 1009.4
20260506144351 71 265 3.5 5.2 0.00 0.00 0.00 63 1009.4
20260506143850 71 227 7.8 9.6 0.00 0.00 0.00 63 1009.4
20260506143347 71 174 7.0 9.6 0.00 0.00 0.00 63 1009.4
20260506142845 70 148 1.7 1.7 0.00 0.00 0.00 64 1009.4
20260506142343 70 137 4.3 6.1 0.00 0.00 0.00 64 1009.4
20260506141841 69 191 5.2 7.0 0.00 0.00 0.00 66 1009.1
20260506141339 69 188 7.0 9.6 0.00 0.00 0.00 66 1009.4
20260506140836 69 179 7.0 7.8 0.00 0.00 0.00 67 1009.4
20260506140333 68 145 4.3 7.0 0.00 0.00 0.00 68 1009.4
20260506135830 68 231 5.2 7.0 0.00 0.00 0.00 69 1009.8
20260506135327 67 222 3.5 3.5 0.00 0.00 0.00 70 1009.4
20260506134823 67 237 5.2 7.8 0.00 0.00 0.00 70 1009.4
20260506134319 67 167 1.7 1.7 0.00 0.00 0.00 71 1009.8
20260506133817 66 270 1.7 2.6 0.00 0.00 0.00 72 1010.1
20260506133313 66 211 7.0 11.3 0.00 0.00 0.00 72 1010.1
20260506132810 66 227 5.2 6.1 0.00 0.00 0.00 72 1010.1
20260506132307 66 187 5.2 7.8 0.00 0.00 0.00 73 1010.1
20260506131805 66 236 5.2 8.7 0.00 0.00 0.00 73 1010.1
20260506131301 66 183 7.8 8.7 0.00 0.00 0.00 73 1010.1
20260506130758 65 221 6.1 7.8 0.00 0.00 0.00 74 1010.1
20260506130255 65 176 5.2 8.7 0.00 0.00 0.00 74 1009.8
20260506125753 65 172 4.3 5.2 0.00 0.00 0.00 74 1010.1
20260506125250 65 246 4.3 6.1 0.00 0.00 0.00 74 1010.5
20260506124749 64 239 3.5 6.1 0.00 0.00 0.00 76 1010.1
20260506124246 64 188 1.7 5.2 0.00 0.00 0.00 76 1010.5
20260506123743 64 185 4.3 5.2 0.00 0.00 0.00 77 1010.5
20260506123242 63 218 5.2 7.8 0.00 0.00 0.00 77 1010.5
20260506122738 63 215 0.9 1.7 0.00 0.00 0.00 79 1010.5
20260506122235 63 160 4.3 7.8 0.00 0.00 0.00 78 1010.1
20260506121734 63 176 4.3 7.0 0.00 0.00 0.00 78 1010.1
20260506121230 63 218 2.6 5.2 0.00 0.00 0.00 79 1010.1
20260506120727 62 195 1.7 1.7 0.00 0.00 0.00 80 1010.1
20260506120225 62 174 2.6 3.5 0.00 0.00 0.00 80 1010.5
20260506115723 62 198 4.3 7.8 0.00 0.00 0.00 81 1010.5
20260506115221 62 198 4.3 6.1 0.00 0.00 0.00 81 1010.5
20260506114718 61 184 3.5 3.5 0.00 0.00 0.00 81 1010.5
20260506114216 62 112 3.5 6.1 0.00 0.00 0.00 81 1010.8
20260506113714 62 198 4.3 7.0 0.00 0.00 0.00 81 1010.8
20260506113211 61 144 1.7 3.5 0.00 0.00 0.00 81 1010.8
20260506112707 61 167 1.7 1.7 0.00 0.00 0.00 81 1010.8
20260506112205 61 228 3.5 7.0 0.00 0.00 0.00 81 1010.5
20260506111702 61 189 4.3 7.0 0.00 0.00 0.00 81 1010.5
20260506111200 61 175 2.6 3.5 0.00 0.00 0.00 81 1010.5
20260506110657 61 180 5.2 6.1 0.00 0.00 0.00 81 1010.5
20260506110155 62 227 2.6 3.5 0.00 0.00 0.00 80 1010.5
20260506105651 61 155 1.7 1.7 0.00 0.00 0.00 81 1010.8
20260506105148 61 177 3.5 5.2 0.00 0.00 0.00 82 1010.5
20260506104646 61 231 2.6 5.2 0.00 0.00 0.00 82 1010.5
20260506104143 61 194 3.5 3.5 0.00 0.00 0.00 82 1010.8
20260506103640 61 205 2.6 3.5 0.00 0.00 0.00 82 1010.5
20260506103137 61 196 4.3 5.2 0.00 0.00 0.00 82 1010.8
20260506102635 61 142 2.6 5.2 0.00 0.00 0.00 82 1010.8
20260506102133 61 148 2.6 5.2 0.00 0.00 0.00 82 1010.5
20260506101629 61 146 2.6 3.5 0.00 0.00 0.00 82 1010.8
20260506101126 61 156 4.3 6.1 0.00 0.00 0.00 82 1010.5
20260506100625 61 215 3.5 3.5 0.00 0.00 0.00 82 1010.8
20260506100122 61 154 2.6 2.6 0.00 0.00 0.00 82 1010.5
20260506095621 60 169 1.7 1.7 0.00 0.00 0.00 82 1010.5
20260506095117 60 213 3.5 3.5 0.00 0.00 0.00 82 1010.1
20260506094615 61 187 2.6 2.6 0.00 0.00 0.00 82 1010.5
20260506094112 61 162 5.2 7.8 0.00 0.00 0.00 81 1010.5
20260506093610 61 203 2.6 2.6 0.00 0.00 0.00 82 1010.5
20260506093107 61 202 3.5 3.5 0.00 0.00 0.00 81 1010.5
20260506092605 61 177 3.5 5.2 0.00 0.00 0.00 81 1010.5
20260506092102 61 188 2.6 2.6 0.00 0.00 0.00 81 1010.1
20260506091600 61 137 2.6 6.1 0.00 0.00 0.00 81 1010.5
20260506091057 61 151 6.1 7.0 0.00 0.00 0.00 81 1010.1
20260506090555 61 204 5.2 6.1 0.00 0.00 0.00 80 1010.5
20260506090051 61 227 6.1 9.6 0.00 0.00 0.00 80 1010.5
20260506085548 61 214 5.2 7.0 0.00 0.00 0.00 80 1010.5
20260506085044 61 212 3.5 3.5 0.00 0.00 0.00 80 1010.5
20260506084541 61 196 1.7 1.7 0.00 0.00 0.00 79 1010.5
20260506084037 62 165 5.2 7.0 0.00 0.00 0.00 79 1010.5
20260506083535 61 178 3.5 6.1 0.00 0.00 0.00 79 1010.5
20260506083032 61 229 5.2 7.0 0.00 0.00 0.00 79 1010.5
20260506082529 61 186 1.7 2.6 0.00 0.00 0.00 79 1010.1
20260506082025 62 198 3.5 3.5 0.00 0.00 0.00 78 1010.5
20260506081523 62 231 7.8 9.6 0.00 0.00 0.00 78 1010.5
20260506081020 62 243 6.1 7.8 0.00 0.00 0.00 78 1010.5
20260506080517 62 152 2.6 3.5 0.00 0.00 0.00 78 1010.5